Regional Weather Roundup
Issued by NWS

Home | Current Version | Previous Version | Text Only | Print | Product List | Glossary Off
Versions: 1 2 3 4 5 6 7 8 9 10 11 12 13 14 15 16 17 18 19 20 21 22 23 24 25 26 27 28 29 30 31 32 33 34 35 36 37 38 39 40 41 42 43 44 45 46 47 48 49 50

000
ASUS43 KLMK 292202
RWRKY
KENTUCKY REGIONAL WEATHER ROUNDUP
NATIONAL WEATHER SERVICE LOUISVILLE KY
500 PM EST THU JAN 29 2015

NOTE "FAIR" INDICATES FEW OR NO CLOUDS BELOW 12,000 FEET
WITH NO SIGNIFICANT WEATHER AND/OR OBSTRUCTIONS TO VISIBILITY.

KYZ001>023-026-027-061>063-070>075-292300-
WESTERN AND SOUTH CENTRAL KENTUCKY

CITY           SKY/WX    TMP DP  RH WIND       PRES   REMARKS
PADUCAH        CLOUDY    43  31  62 NW12G20   30.21R
HENDERSON      CLOUDY    39  30  70 NW18      30.18R WCI  30
OWENSBORO      CLOUDY    40  33  76 NW16G26   30.17R WCI  31
HOPKINSVILLE   CLOUDY    43  33  67 NW20G26   30.17R
BOWLING GREEN  CLOUDY    44  33  65 NW21G28   30.12R
GLASGOW        NOT AVBL
$$

KYZ024-025-028>034-038-045-046-053-292300-
NORTH CENTRAL KENTUCKY

CITY           SKY/WX    TMP DP  RH WIND       PRES   REMARKS
LOUISVILLE/SDF CLOUDY    40  33  76 W22G29    30.09R WCI  30
LOUISVILLE/LOU CLOUDY    39  33  79 W14       30.09R WCI  31
FORT KNOX      CLOUDY    39  32  75 W14       30.09R WCI  31
$$

KYZ035>037-039>044-047>052-055>060-089>105-292300-
NORTHEAST KENTUCKY

CITY           SKY/WX    TMP DP  RH WIND       PRES   REMARKS
LEXINGTON      CLOUDY    41  33  73 W23G32    30.02R
COVINGTON      CLOUDY    36  32  85 W21G29    30.00R WCI  25
FRANKFORT      CLOUDY    40  33  76 W14G24    30.04R WCI  32
$$

KYZ054-064>069-076>088-106>120-292300-
SOUTHEAST KENTUCKY

CITY           SKY/WX    TMP DP  RH WIND       PRES   REMARKS
JACKSON        CLOUDY    53  38  56 SW12G23   29.92R
LONDON         CLOUDY    58  36  43 W17G29    29.96R
SOMERSET       NOT AVBL
MIDDLESBORO    NOT AVBL
MONTICELLO     CLOUDY    52  40  63 NW14      30.04R
$$



USA.gov is the U.S. government's official web portal to all federal, state and local government web resources and services.